Location: Minsk
(53.9000°N, 27.5670°E)
Time: 06:02:49
(UTC+03:00)

N. Korean satellite - Visible Passes

Search period start: 07 October 2022 00:00
Search period end: 17 October 2022 00:00
Orbit: 425 x 467 km, 97.3° (Epoch: 06 October)

Date Brightness Start Highest point End Pass type
(mag) Time Alt. Az. Time Alt. Az. Time Alt. Az.
07 Oct 9.3 05:46:34 10° NE 05:49:05 20° E 05:51:34 10° SE visible
08 Oct 6.3 06:42:33 10° NNE 06:45:49 89° E 06:49:05 10° SSW visible
09 Oct 8.3 06:06:32 10° NNE 06:09:31 32° E 06:12:31 10° SSE visible
10 Oct 9.7 05:31:11 10° NE 05:33:00 14° E 05:34:48 10° ESE visible
11 Oct 7.1 06:26:25 10° NNE 06:29:40 56° E 06:32:53 10° S visible
12 Oct 9.1 05:50:27 10° NE 05:53:06 22° E 05:55:43 10° SSE visible
13 Oct 6.3 06:46:11 10° NNE 06:49:28 83° WNW 06:52:45 10° SSW visible
14 Oct 8.1 06:09:48 10° NNE 06:12:52 35° E 06:15:56 10° SSE visible
15 Oct 9.7 05:34:02 10° NE 05:36:02 15° E 05:38:01 10° SE visible
16 Oct 6.9 06:29:04 10° NNE 06:32:20 61° ESE 06:35:36 10° S visible
